AirNav   Air Wisconsin pilot careers
 
 1477 users online  

VG53 Venning's Landing Airport
Rocky Mount, Virginia, USA

GOING TO ROCKY MOUNT?


FAA INFORMATION EFFECTIVE 01 FEBRUARY 2018

Location

FAA Identifier: VG53
Lat/Long: 37-02-37.0000N / 079-48-05.0000W
37-02.616667N / 079-48.083333W
37.0436111 / -79.8013889
(estimated)
Elevation: 1100 ft. / 335 m (estimated)
Variation: 10W (2000)
From city: 5 miles NE of ROCKY MOUNT, VA
Time zone: UTC -5 (UTC -4 during Daylight Saving Time)
Zip code: 24092

Airport Operations

Airport use: Private use. Permission required prior to landing
Activation date: 10/2002
Control tower: no
ARTCC: WASHINGTON CENTER
FSS: LEESBURG FLIGHT SERVICE STATION
Attendance: UNATNDD
Wind indicator: yes
Segmented circle: no

Airport Communications

WX ASOS at ROA (19 nm NW): PHONE 540-265-0680

Nearby radio navigation aids

VOR radial/distance  VOR name  Freq  Var
ODRr161/(18.9)WOODRUM VOR114.9008W
ROAr148/22.1ROANOKE VOR/DME109.4004W
LYHr250/29.8LYNCHBURG VORTAC109.2005W
DANr328/(36.2)DANVILLE VOR113.1006W

 
NDB name  Hdg/Dist  Freq  Var  ID
VINTON166/10.427708WVIT ...- .. -
TECH115/30.536806WTEC - . -.-.
SLAMMER004/39.842307WSIF ... .. ..-.

Airport Services

Runway Information

Runway 5/23

Dimensions: 1976 x 80 ft. / 602 x 24 m
Surface: turf
RUNWAY 5  RUNWAY 23
Traffic pattern: leftleft

Airport Ownership and Management from official FAA records

Ownership: Privately-owned
Owner: S. GREGORY VENNING
695 LAKEWOOD FOREST RD
MONETA, VA 24121
Phone 540-721-3550
Manager: S. GREGORY VENNING
695 LAKEWOOD FOREST RD
MONETA, VA 24121
Phone 540-721-3550

Airport Operational Statistics

Aircraft based on the field: 4
Single engine airplanes: 3
Ultralights: 1
    

Instrument Procedures

There are no published instrument procedures at VG53.

Some nearby airports with instrument procedures:

W91 - Smith Mountain Lake Airport (11 nm E)
KROA - Roanoke-Blacksburg Regional Airport/Woodrum Field (19 nm NW)
W90 - New London Airport (26 nm NE)
KMTV - Blue Ridge Airport (27 nm SW)
KBCB - Virginia Tech/Montgomery Executive Airport (31 nm W)
 
Loc | Ops | Rwys | IFR | FBO | Links
Com | Nav | Svcs | Stats | Notes

AirNav Hotels Sweepstakes
 
Area around VG53 (Venning's Landing Airport)
 
Road maps at: MapQuest Bing Google
 
Aerial photo
No photo
 
Sectional chart

 
Airport distance calculator
Flying to Venning's Landing Airport? Find the distance to fly.

From to VG53

Sunrise and sunset
Times for 20-Feb-2018
 Local
(UTC-5)
 Zulu
(UTC)
Morning civil twilight06:3711:37
Sunrise07:0312:03
Sunset18:0323:03
Evening civil twilight18:2923:29

Current date and time
Zulu (UTC)  20-Feb-2018 22:55:01
Local (UTC-5)  20-Feb-2018 17:55:01
 
METAR
KROA 
18nm NW 
202154Z 16016G22KT 10SM FEW045 21/13 A3034 RMK AO2 SLP271 T02110128
KMTV 
28nm S 
202235Z AUTO 20005KT 10SM OVC020 18/14 A3042 RMK AO2 T01800142
KBCB 
31nm W 
202235Z AUTO 20009G17KT 170V230 10SM CLR 18/12 A3040 RMK AO2 T01750121
KLYH 
33nm NE 
202154Z 19017G21KT 10SM FEW032 19/14 A3035 RMK AO2 SLP276 T01940139
TAF
KROA 
18nm NW 
201934Z 2020/2118 21012G21KT P6SM SCT045 FM210100 18004KT P6SM SCT025 BKN040 FM210600 VRB03KT 3SM BR BKN007 FM211400 20003KT 6SM BR OVC015
NOTAMs
Click for the latest NOTAMs
NOTAMs are issued by the DoD/FAA and will open in a separate window not controlled by AirNav.

 

 
 

Would you like to see your business listed on this page?

 If your business provides an interesting product or service to pilots, flight crews, aircraft, or users of the Venning's Landing Airport, you should consider listing it here.  To start the listing process, click on the button below
 
Add a business
 

Other Pages about Venning's Landing Airport

Update a link
 
Copyright © AirNav, LLC. All rights reserved. Privacy Policy  Contact